sat.trackr.live / text

‹ back to catalog

GEESAT-1 08

NORAD 52792 · 2022-058H

PAYLOAD ACTIVE UNKNOWN

§ Identity

Operator
Country
PRC
Launch date
2022-06-02
Launch site
XICLF
Launch vehicle
Mass (kg)
RCS (m²)

External: N2YO · Heavens-Above · Gunter

§ Orbital elements

Epoch: 2026-05-25T04:15:50.223168Z

Period
97.21 min
Inclination
49.9947°
Eccentricity
0.0020180
Mean motion
14.81286884 rev/d
Perigee alt
611.1 km
Apogee alt
639.4 km
Semi-major
7,003.4 km
B*
2.3926e-4
RAAN
307.8092°
Arg perigee
201.5347°
Mean anomaly
158.4743°
Rev number
21,652

§ Raw data

GEESAT-1 081 52792U 22058H   26145.17766462  .00001666  00000+0  23926-3 0  99922 52792  49.9947 307.8092 0020180 201.5347 158.4743 14.81286884216529

JSON: /api/v1/satellites/52792 · /tle

For live sub-satellite position, see the globe view (requires WebGL).

§ Visibility from observer

Set your observer location to see the next 7 days of passes ≥ 10°. The values pass through the URL so the page stays shareable.

No JS? Fill the form by hand. The geolocation button needs JavaScript.